• In Germany
  • List of Countries
  • For 7 days
  • Water Temperature
  • Satellite Maps
  • Weather Map
  • Weather Widgets
  • user-avatar
    Login

    Hourly Weather Gorlice

    Today, 20 September, Thursday

    Time Temperature Precipitation Wind Pressure Humidity
    00:00 +16°C° 0 mm 1 mps 738 mmHg 78%
    01:00 +15°C° 0 mm 1 mps 738 mmHg 79%
    02:00 +15°C° 0 mm 1 mps 738 mmHg 80%
    03:00 +15°C° 0 mm 1 mps 737 mmHg 81%
    04:00 +15°C° 0 mm 1 mps 737 mmHg 81%
    05:00 +15°C° 0 mm 1 mps 738 mmHg 78%
    06:00 +16°C° 0 mm 1 mps 738 mmHg 76%
    07:00 +18°C° 0 mm 1 mps 738 mmHg 73%
    08:00 +21°C° 0 mm 1 mps 738 mmHg 65%
    09:00 +23°C° 0 mm 1 mps 738 mmHg 57%
    10:00 +26°C° 0 mm 1 mps 738 mmHg 50%
    11:00 +26°C° 0 mm 1 mps 738 mmHg 47%
    12:00 +27°C° 0 mm 1 mps 738 mmHg 45%
    13:00 +27°C° 0 mm 1 mps 738 mmHg 42%
    14:00 +27°C° 0 mm 1 mps 737 mmHg 46%
    15:00 +26°C° 0 mm 1 mps 737 mmHg 50%
    16:00 +25°C° 0 mm 1 mps 737 mmHg 54%
    17:00 +24°C° 0 mm 1 mps 737 mmHg 58%
    18:00 +22°C° 0 mm 1 mps 737 mmHg 61%
    19:00 +20°C° 0 mm 1 mps 737 mmHg 65%
    20:00 +19°C° 0 mm 1 mps 736 mmHg 68%
    21:00 +19°C° 0 mm 1 mps 736 mmHg 71%
    22:00 +18°C° 0 mm 1 mps 736 mmHg 74%
    23:00 +18°C° 0 mm 1 mps 736 mmHg 75%

    Tomorrow, 21 September, Friday

    Time Temperature Precipitation Wind Pressure Humidity
    00:00 +16°C° 0 mm 1 mps 736 mmHg 76%
    01:00 +16°C° 0 mm 1 mps 736 mmHg 78%
    02:00 +16°C° 0 mm 1 mps 736 mmHg 78%
    03:00 +16°C° 0 mm 1 mps 736 mmHg 79%
    04:00 +15°C° 0 mm 1 mps 735 mmHg 80%
    05:00 +16°C° 0 mm 1 mps 735 mmHg 77%
    06:00 +18°C° 0 mm 1 mps 735 mmHg 75%
    07:00 +18°C° 0 mm 2 mps 735 mmHg 73%
    08:00 +20°C° 0 mm 2 mps 735 mmHg 65%
    09:00 +22°C° 0 mm 3 mps 735 mmHg 57%
    10:00 +25°C° 0 mm 4 mps 735 mmHg 49%
    11:00 +26°C° 0 mm 4 mps 735 mmHg 46%
    12:00 +27°C° 0 mm 4 mps 735 mmHg 44%
    13:00 +28°C° 0 mm 4 mps 734 mmHg 41%
    14:00 +27°C° 0 mm 4 mps 734 mmHg 44%
    15:00 +27°C° 0 mm 3 mps 734 mmHg 47%
    16:00 +26°C° 0 mm 3 mps 733 mmHg 50%
    17:00 +24°C° 0 mm 3 mps 733 mmHg 54%
    18:00 +21°C° 0 mm 3 mps 733 mmHg 58%
    19:00 +20°C° 0 mm 3 mps 733 mmHg 63%
    20:00 +19°C° 0 mm 3 mps 733 mmHg 63%
    21:00 +18°C° 0 mm 3 mps 733 mmHg 64%
    22:00 +18°C° 0 mm 3 mps 733 mmHg 64%
    23:00 +18°C° 0 mm 3 mps 733 mmHg 63%

    Day after tomorrow, 22 September, Saturday

    Time Temperature Precipitation Wind Pressure Humidity
    00:00 +18°C° 0 mm 3 mps 733 mmHg 62%
    01:00 +18°C° 0 mm 3 mps 733 mmHg 60%
    02:00 +17°C° 0.1 mm 3 mps 733 mmHg 64%
    03:00 +17°C° 0.1 mm 2 mps 734 mmHg 68%
    04:00 +16°C° 0.1 mm 2 mps 734 mmHg 71%
    05:00 +16°C° 0.2 mm 2 mps 734 mmHg 76%
    06:00 +16°C° 0.2 mm 2 mps 735 mmHg 80%
    07:00 +15°C° 0.2 mm 2 mps 735 mmHg 84%
    08:00 +15°C° 0.1 mm 2 mps 735 mmHg 83%
    09:00 +14°C° 0.1 mm 3 mps 736 mmHg 83%
    10:00 +14°C° 0.1 mm 3 mps 736 mmHg 82%
    11:00 +13°C° 1.3 mm 3 mps 736 mmHg 85%
    12:00 +14°C° 1.3 mm 2 mps 736 mmHg 88%
    13:00 +13°C° 1.3 mm 2 mps 736 mmHg 90%
    14:00 +12°C° 1.9 mm 2 mps 736 mmHg 91%
    15:00 +12°C° 1.9 mm 2 mps 736 mmHg 91%
    16:00 +10°C° 1.9 mm 2 mps 736 mmHg 92%
    17:00 +11°C° 0.6 mm 1 mps 736 mmHg 92%
    18:00 +11°C° 0.6 mm 1 mps 737 mmHg 92%
    19:00 +10°C° 0.6 mm 1 mps 737 mmHg 93%
    20:00 +10°C° 0 mm 1 mps 737 mmHg 92%
    21:00 +9°C° 0 mm 1 mps 737 mmHg 91%
    22:00 +8°C° 0 mm 2 mps 737 mmHg 90%
    23:00 +8°C° 0 mm 2 mps 737 mmHg 90%

    23 September, Sunday

    Time Temperature Precipitation Wind Pressure Humidity
    00:00 +8°C° 0 mm 2 mps 737 mmHg 89%
    01:00 +8°C° 0 mm 2 mps 737 mmHg 88%
    02:00 +7°C° 0 mm 2 mps 737 mmHg 88%
    03:00 +7°C° 0 mm 2 mps 737 mmHg 88%
    04:00 +7°C° 0 mm 2 mps 737 mmHg 89%
    05:00 +8°C° 0 mm 2 mps 737 mmHg 87%
    06:00 +9°C° 0 mm 2 mps 737 mmHg 85%
    07:00 +10°C° 0 mm 2 mps 737 mmHg 84%
    08:00 +12°C° 0 mm 2 mps 737 mmHg 75%
    09:00 +14°C° 0 mm 2 mps 737 mmHg 66%
    10:00 +16°C° 0 mm 3 mps 737 mmHg 57%
    11:00 +17°C° 0 mm 3 mps 737 mmHg 53%
    12:00 +17°C° 0 mm 3 mps 736 mmHg 49%
    13:00 +18°C° 0 mm 3 mps 736 mmHg 45%
    14:00 +18°C° 0 mm 3 mps 735 mmHg 48%
    15:00 +18°C° 0 mm 2 mps 735 mmHg 51%
    16:00 +17°C° 0 mm 2 mps 734 mmHg 54%
    17:00 +16°C° 0 mm 2 mps 734 mmHg 58%
    18:00 +14°C° 0 mm 3 mps 733 mmHg 62%
    19:00 +13°C° 0 mm 3 mps 732 mmHg 67%
    20:00 +13°C° 0 mm 4 mps 731 mmHg 66%
    21:00 +13°C° 0 mm 5 mps 730 mmHg 65%
    22:00 +13°C° 0 mm 6 mps 729 mmHg 65%
    23:00 +14°C° 0 mm 6 mps 728 mmHg 62%

    24 September, Monday

    Time Temperature Precipitation Wind Pressure Humidity
    00:00 +14°C° 0 mm 7 mps 727 mmHg 60%
    01:00 +15°C° 0 mm 7 mps 726 mmHg 58%
    02:00 +15°C° 0 mm 8 mps 725 mmHg 58%
    03:00 +15°C° 0 mm 8 mps 723 mmHg 57%
    04:00 +15°C° 0 mm 8 mps 722 mmHg 57%
    05:00 +14°C° 0.9 mm 7 mps 721 mmHg 66%
    06:00 +14°C° 0.9 mm 5 mps 721 mmHg 75%
    07:00 +13°C° 0.9 mm 4 mps 721 mmHg 84%
    08:00 +13°C° 0.8 mm 5 mps 721 mmHg 85%
    09:00 +13°C° 0.8 mm 5 mps 721 mmHg 85%
    10:00 +13°C° 0.8 mm 5 mps 721 mmHg 85%
    11:00 +12°C° 0.4 mm 7 mps 722 mmHg 81%
    12:00 +11°C° 0.4 mm 8 mps 722 mmHg 76%
    13:00 +11°C° 0.4 mm 10 mps 723 mmHg 72%
    14:00 +11°C° 0.1 mm 10 mps 724 mmHg 72%
    15:00 +9°C° 0.1 mm 10 mps 725 mmHg 71%
    16:00 +9°C° 0.1 mm 10 mps 726 mmHg 71%
    17:00 +8°C° 0.1 mm 9 mps 727 mmHg 70%
    18:00 +8°C° 0.1 mm 9 mps 727 mmHg 70%
    19:00 +8°C° 0.1 mm 9 mps 728 mmHg 69%
    20:00 +8°C° 0.1 mm 9 mps 729 mmHg 70%
    21:00 +7°C° 0.1 mm 9 mps 729 mmHg 72%
    22:00 +7°C° 0.1 mm 9 mps 730 mmHg 73%
    23:00 +7°C° 0.4 mm 8 mps 731 mmHg 76%

    25 September, Tuesday

    Time Temperature Precipitation Wind Pressure Humidity
    00:00 +6°C° 0.4 mm 8 mps 731 mmHg 79%
    01:00 +6°C° 0.4 mm 7 mps 732 mmHg 82%
    02:00 +5°C° 0.2 mm 7 mps 732 mmHg 83%
    03:00 +5°C° 0.2 mm 6 mps 733 mmHg 83%
    04:00 +5°C° 0.2 mm 6 mps 733 mmHg 84%
    05:00 +5°C° 0.2 mm 6 mps 734 mmHg 83%
    06:00 +5°C° 0.2 mm 6 mps 735 mmHg 82%
    07:00 +5°C° 0.2 mm 6 mps 735 mmHg 81%
    08:00 +6°C° 0.3 mm 7 mps 736 mmHg 78%
    09:00 +6°C° 0.3 mm 7 mps 736 mmHg 75%
    10:00 +6°C° 0.3 mm 7 mps 736 mmHg 71%
    11:00 +8°C° 0.3 mm 7 mps 736 mmHg 68%
    12:00 +8°C° 0.3 mm 7 mps 737 mmHg 64%
    13:00 +9°C° 0.3 mm 6 mps 737 mmHg 61%
    14:00 +9°C° 0.3 mm 6 mps 737 mmHg 62%
    15:00 +8°C° 0.3 mm 6 mps 737 mmHg 64%
    16:00 +8°C° 0.3 mm 5 mps 737 mmHg 66%
    17:00 +7°C° 0.2 mm 4 mps 738 mmHg 69%
    18:00 +6°C° 0.2 mm 4 mps 738 mmHg 73%
    19:00 +4°C° 0.2 mm 3 mps 739 mmHg 77%
    20:00 +4°C° 0.1 mm 3 mps 739 mmHg 78%
    21:00 +4°C° 0.1 mm 2 mps 740 mmHg 80%
    22:00 +4°C° 0.1 mm 2 mps 740 mmHg 81%
    23:00 +3°C° 0 mm 2 mps 741 mmHg 82%
    Show more